E0445 Weather Reports


time (UTC)temp
F
wind
direction
speed
knots
gust
knots
rain 1hr
in
rain 24hr
in
rain mn
in
humidity
%
barometer
mb
20260507031011 42 0 0.0 1.7 0.00 0.41 0.41 92 1010.9
20260507030512 43 297 0.0 1.7 0.00 0.41 0.41 92 1011.0
20260507030031 43 0 0.0 0.9 0.00 0.41 0.41 92 1010.9
20260507025510 44 0 0.0 1.7 0.00 0.41 0.41 92 1011.0
20260507025013 44 0 0.0 0.9 0.00 0.41 0.41 92 1011.1
20260507024533 44 0 0.0 0.9 0.00 0.41 0.41 92 1011.1
20260507024014 45 0 0.0 0.0 0.00 0.41 0.41 92 1010.9
20260507023515 45 0 0.0 0.0 0.00 0.41 0.41 92 1010.9
20260507023029 45 0 0.0 0.9 0.00 0.41 0.41 92 1010.9
20260507022512 45 0 0.0 2.6 0.00 0.41 0.41 92 1011.2
20260507022013 45 0 0.9 2.6 0.00 0.41 0.41 92 1011.6
20260507021533 45 0 0.0 2.6 0.00 0.41 0.41 92 1011.5
20260507021013 45 0 0.0 2.6 0.00 0.41 0.41 92 1011.0
20260507020509 45 300 0.0 1.7 0.00 0.41 0.41 92 1011.3
20260507020028 45 0 0.0 0.0 0.00 0.41 0.41 92 1011.3
20260507015512 46 0 0.0 0.0 0.00 0.41 0.41 92 1011.5
20260507015015 46 0 0.0 0.0 0.00 0.41 0.41 92 1011.6
20260507014531 46 0 0.0 0.0 0.00 0.41 0.41 92 1011.6
20260507014012 46 0 0.0 0.0 0.00 0.41 0.41 91 1011.5
20260507013510 46 0 0.0 0.9 0.00 0.41 0.41 91 1011.4
20260507013029 46 0 0.0 3.5 0.00 0.41 0.41 91 1011.4
20260507012012 46 319 0.9 3.5 0.00 0.41 0.41 91 1011.4
20260507011533 46 327 0.0 3.5 0.00 0.41 0.41 91 1011.3
20260507011011 46 0 0.0 3.5 0.00 0.41 0.41 91 1011.3
20260507010513 46 307 1.7 3.5 0.00 0.41 0.41 91 1011.5
20260507010040 46 290 1.7 4.3 0.00 0.41 0.41 91 1011.5
20260507005510 46 288 1.7 4.3 0.00 0.41 0.41 91 1011.3
20260507005010 46 281 1.7 4.3 0.00 0.41 0.41 91 1011.0
20260507004529 46 314 0.9 2.6 0.00 0.41 0.41 91 1010.9
20260507004013 46 282 0.0 2.6 0.00 0.41 0.41 91 1010.9
20260507003511 46 288 0.0 5.2 0.00 0.41 0.41 91 1010.8
20260507003030 46 321 1.7 5.2 0.00 0.41 0.41 91 1010.7
20260507002512 46 323 1.7 4.3 0.00 0.41 0.41 91 1010.6
20260507002013 46 303 0.9 4.3 0.00 0.41 0.41 91 1010.4
20260507001549 46 317 1.7 4.3 0.00 0.41 0.41 91 1010.3
20260507001011 46 5 0.9 7.8 0.00 0.41 0.41 91 1010.4
20260507000512 46 344 2.6 7.8 0.00 0.41 0.41 91 1010.5
20260507000035 46 312 0.9 5.2 0.00 0.41 0.41 91 1010.6
20260506235511 46 31 1.7 7.0 0.00 0.41 0.41 91 1010.4
20260506235010 46 288 2.6 7.0 0.00 0.41 0.41 92 1010.4
20260506234531 46 342 3.5 7.8 0.00 0.41 0.41 92 1010.1
20260506234013 46 355 0.9 7.8 0.00 0.41 0.41 92 1010.0
20260506233511 46 0 1.7 7.0 0.00 0.41 0.41 92 1010.0
20260506233030 46 305 3.5 7.0 0.00 0.41 0.41 92 1010.1
20260506232512 46 349 2.6 7.0 0.00 0.41 0.41 92 1009.9
20260506232010 46 348 2.6 8.7 0.00 0.41 0.41 92 1009.9
20260506231528 47 21 2.6 8.7 0.00 0.41 0.41 92 1010.0
20260506231013 47 320 1.7 8.7 0.00 0.41 0.41 92 1010.0
20260506230512 47 355 3.5 8.7 0.00 0.41 0.41 92 1010.0
20260506230032 47 330 1.7 9.6 0.00 0.41 0.41 93 1009.9
20260506225512 47 336 2.6 9.6 0.00 0.41 0.41 93 1009.8
20260506225012 47 338 4.3 8.7 0.00 0.41 0.41 93 1009.7
20260506224526 47 355 1.7 7.8 0.00 0.41 0.41 93 1009.5
20260506224014 47 301 4.3 8.7 0.01 0.41 0.41 93 1009.4
20260506223512 47 337 2.6 8.7 0.01 0.41 0.41 93 1009.1
20260506223029 47 321 2.6 5.2 0.01 0.41 0.41 93 1009.1
20260506222510 47 360 2.6 5.2 0.01 0.41 0.41 93 1009.1
20260506222013 47 324 1.7 5.2 0.02 0.41 0.41 93 1009.1
20260506221530 48 5 1.7 9.6 0.02 0.41 0.41 93 1009.0
20260506221010 48 5 4.3 9.6 0.02 0.41 0.41 93 1008.8
20260506220510 48 355 1.7 8.7 0.02 0.41 0.41 93 1008.9
20260506220033 48 333 2.6 8.7 0.02 0.41 0.41 93 1008.8
20260506215511 48 346 5.2 8.7 0.02 0.41 0.41 93 1008.9
20260506215011 48 313 3.5 7.8 0.02 0.41 0.41 93 1008.8
20260506214530 48 335 3.5 7.8 0.02 0.41 0.41 93 1008.5
20260506214010 48 320 2.6 11.3 0.01 0.40 0.40 92 1008.6
20260506213514 49 350 4.3 11.3 0.01 0.40 0.40 92 1008.5
20260506213037 49 301 4.3 9.6 0.01 0.40 0.40 92 1008.5
20260506212512 49 325 3.5 11.3 0.01 0.40 0.40 92 1008.3
20260506212010 50 331 6.1 11.3 0.00 0.39 0.39 92 1007.9
20260506211539 50 288 6.1 11.3 0.00 0.39 0.39 92 1007.9
20260506211010 50 306 7.8 13.0 0.00 0.39 0.39 92 1007.7
20260506210512 50 321 6.1 13.0 0.01 0.39 0.39 92 1007.5
20260506210035 51 342 4.3 11.3 0.01 0.39 0.39 92 1007.5
20260506205510 51 334 7.0 11.3 0.01 0.39 0.39 92 1007.2
20260506205014 51 288 7.0 9.6 0.01 0.39 0.39 92 1007.1
20260506204533 52 337 4.3 10.4 0.01 0.39 0.39 92 1006.9
20260506204010 52 325 5.2 10.4 0.01 0.39 0.39 92 1006.8
20260506203512 52 331 4.3 12.2 0.01 0.39 0.39 91 1006.8
20260506203033 53 323 6.1 12.2 0.01 0.39 0.39 91 1006.7
20260506202513 53 326 6.1 12.2 0.01 0.39 0.39 91 1006.7
20260506202015 54 355 4.3 15.6 0.01 0.39 0.39 91 1006.6
20260506201536 55 355 6.1 15.6 0.01 0.39 0.39 91 1006.5
20260506201013 56 302 6.1 15.6 0.01 0.39 0.39 92 1006.4
20260506200510 58 319 6.1 13.0 0.00 0.38 0.38 93 1006.2
20260506200031 59 293 6.1 8.7 0.00 0.38 0.38 94 1006.1
20260506195513 59 0 1.7 6.1 0.00 0.38 0.38 94 1005.8
20260506195016 59 186 2.6 7.8 0.00 0.38 0.38 94 1005.9
20260506194527 59 210 1.7 7.8 0.00 0.38 0.38 94 1005.9
20260506194011 59 194 4.3 7.0 0.00 0.38 0.38 95 1006.0
20260506193512 59 188 3.5 6.1 0.00 0.38 0.38 95 1005.9
20260506193042 59 0 2.6 5.2 0.00 0.38 0.38 95 1006.0
20260506192514 59 197 2.6 5.2 0.00 0.38 0.38 95 1005.9
20260506192010 59 200 2.6 7.0 0.00 0.38 0.38 95 1006.0
20260506191528 59 195 0.9 7.0 0.00 0.38 0.38 95 1006.1
20260506191012 59 213 3.5 7.0 0.00 0.38 0.38 95 1006.1
20260506190513 58 228 3.5 7.8 0.00 0.38 0.38 95 1006.0
20260506190028 58 191 2.6 7.8 0.00 0.38 0.38 95 1006.1
20260506185511 58 217 3.5 10.4 0.00 0.38 0.38 96 1006.1
20260506185011 58 202 4.3 10.4 0.00 0.38 0.38 96 1006.0
20260506184531 58 208 3.5 7.0 0.00 0.38 0.38 96 1006.2
20260506184010 58 200 3.5 8.7 0.00 0.38 0.38 96 1006.2
20260506183513 58 195 3.5 8.7 0.00 0.38 0.38 96 1006.1
20260506183025 58 193 4.3 8.7 0.00 0.38 0.38 96 1006.3
20260506182511 58 175 4.3 10.4 0.00 0.38 0.38 96 1006.2
20260506182014 58 172 3.5 10.4 0.00 0.38 0.38 96 1006.4
20260506181537 58 190 1.7 13.9 0.00 0.38 0.38 96 1006.4
20260506181013 58 213 4.3 13.9 0.00 0.38 0.38 96 1006.4
20260506180516 58 178 5.2 11.3 0.00 0.38 0.38 96 1006.5
20260506180030 58 163 2.6 7.8 0.00 0.38 0.38 96 1006.4
20260506175514 58 196 3.5 7.8 0.01 0.38 0.38 96 1006.5
20260506175011 58 223 1.7 6.1 0.01 0.38 0.38 96 1006.4
20260506174534 58 163 2.6 7.0 0.01 0.38 0.38 96 1006.4
20260506174014 58 186 2.6 7.0 0.01 0.38 0.38 96 1006.4
20260506173514 58 184 2.6 6.1 0.01 0.38 0.38 96 1006.4
20260506173047 58 202 3.5 6.1 0.01 0.38 0.38 96 1006.4
20260506172511 58 196 1.7 5.2 0.01 0.38 0.38 96 1006.5
20260506172011 58 193 1.7 7.8 0.01 0.38 0.38 96 1006.5
20260506171538 58 183 2.6 7.8 0.01 0.38 0.38 96 1006.6
20260506171012 58 188 2.6 7.0 0.01 0.38 0.38 96 1006.5
20260506170514 58 229 3.5 7.8 0.02 0.38 0.38 96 1006.7
20260506170044 58 200 2.6 7.8 0.02 0.38 0.38 96 1006.7
20260506165515 58 196 3.5 9.6 0.02 0.37 0.37 96 1006.7
20260506165012 57 199 3.5 9.6 0.03 0.37 0.37 96 1006.8
20260506164528 57 208 4.3 8.7 0.04 0.37 0.37 96 1006.8
20260506164015 57 237 4.3 10.4 0.04 0.37 0.37 96 1006.8
20260506163512 57 231 4.3 10.4 0.05 0.37 0.37 96 1006.8
20260506163032 57 184 3.5 7.0 0.06 0.37 0.37 96 1006.9
20260506162512 57 179 3.5 7.0 0.07 0.37 0.37 96 1006.9
20260506162015 57 190 2.6 7.0 0.08 0.37 0.37 96 1006.8
20260506161530 57 187 2.6 6.1 0.08 0.37 0.37 96 1006.8
20260506161016 57 187 1.7 5.2 0.09 0.37 0.37 96 1006.8
20260506160510 57 196 2.6 8.7 0.08 0.36 0.36 96 1006.9
20260506160027 57 219 2.6 8.7 0.09 0.36 0.36 96 1006.9
20260506155511 57 207 2.6 7.8 0.08 0.35 0.35 96 1006.8
20260506155010 57 172 3.5 7.0 0.07 0.34 0.34 96 1007.0
20260506154528 57 199 2.6 6.1 0.06 0.33 0.33 96 1007.0
20260506154012 57 188 3.5 7.0 0.05 0.32 0.32 96 1006.9
20260506153511 57 185 3.5 7.8 0.05 0.32 0.32 96 1006.9
20260506153027 57 173 2.6 8.7 0.05 0.31 0.31 96 1007.0
20260506152511 57 155 2.6 8.7 0.04 0.30 0.30 96 1007.0
20260506152013 57 194 3.5 8.7 0.03 0.29 0.29 96 1007.0
20260506151528 57 213 4.3 8.7 0.04 0.29 0.29 96 1007.0
20260506151013 57 198 3.5 8.7 0.04 0.28 0.28 96 1006.9
20260506150511 57 194 4.3 7.0 0.04 0.28 0.28 96 1006.9
20260506150029 57 204 3.5 7.8 0.04 0.27 0.27 97 1006.8
20260506145514 57 173 3.5 9.6 0.05 0.27 0.27 97 1006.8
20260506145013 56 193 4.3 10.4 0.06 0.27 0.27 97 1006.7
20260506144527 56 197 4.3 10.4 0.07 0.27 0.27 97 1006.8
20260506144012 56 189 3.5 8.7 0.08 0.27 0.27 97 1006.8
20260506143510 56 214 4.3 8.7 0.09 0.27 0.27 97 1006.7
20260506143029 56 184 3.5 6.1 0.09 0.26 0.26 97 1006.8
20260506142511 56 199 0.9 3.5 0.10 0.26 0.26 97 1006.8
20260506142013 55 0 0.0 2.6 0.11 0.26 0.26 97 1006.7
20260506141531 55 131 0.9 2.6 0.11 0.25 0.25 96 1006.6
20260506141011 55 0 0.0 0.9 0.12 0.24 0.24 97 1006.7
20260506140511 55 0 0.0 0.0 0.13 0.24 0.24 96 1006.8
20260506140033 55 0 0.0 1.7 0.13 0.23 0.23 96 1007.1
20260506135513 55 0 0.0 1.7 0.13 0.22 0.22 96 1007.3
20260506135012 54 0 0.0 0.9 0.13 0.21 0.21 96 1007.3
20260506134528 54 0 0.0 0.9 0.13 0.20 0.20 96 1007.4
20260506134014 54 0 0.0 0.9 0.12 0.19 0.19 96 1007.5
20260506133515 54 0 0.0 0.0 0.12 0.18 0.18 96 1007.6
20260506133035 54 0 0.0 0.0 0.11 0.17 0.17 96 1007.8
20260506132509 55 0 0.0 0.0 0.10 0.16 0.16 96 1007.9
20260506132014 54 0 0.0 0.0 0.08 0.14 0.14 96 1008.0
20260506131528 55 0 0.0 0.0 0.08 0.13 0.13 96 1007.9
20260506131013 55 0 0.0 0.9 0.07 0.12 0.12 96 1008.0
20260506130513 55 0 0.0 0.9 0.06 0.11 0.11 96 1008.1
20260506130030 55 0 0.0 0.9 0.06 0.10 0.10 96 1008.0
20260506125511 55 0 0.0 0.0 0.05 0.09 0.09 96 1008.1
20260506125009 55 0 0.0 0.0 0.04 0.08 0.08 96 1007.9
20260506124529 55 0 0.0 0.0 0.03 0.07 0.07 96 1007.9
20260506124012 55 0 0.0 0.0 0.03 0.07 0.07 96 1007.7
20260506123512 54 0 0.0 0.0 0.03 0.06 0.06 95 1007.5
20260506123030 54 0 0.0 0.0 0.03 0.06 0.06 95 1007.4
20260506122513 54 0 0.0 0.0 0.03 0.06 0.06 95 1007.3
20260506122014 55 0 0.0 0.0 0.04 0.06 0.06 95 1007.4
20260506121527 54 0 0.0 0.0 0.03 0.05 0.05 95 1007.5
20260506121011 54 0 0.0 0.0 0.04 0.05 0.05 95 1007.5
20260506120511 55 0 0.0 0.0 0.05 0.05 0.05 94 1007.5
20260506120026 54 0 0.0 0.0 0.04 0.04 0.04 94 1007.6
20260506115511 54 0 0.0 0.0 0.04 0.04 0.04 94 1007.7
20260506115011 54 0 0.0 0.0 0.04 0.04 0.04 94 1007.5
20260506114529 54 0 0.0 0.0 0.04 0.04 0.04 93 1007.6
20260506114009 55 0 0.0 0.0 0.04 0.04 0.04 93 1007.5
20260506113510 55 0 0.0 0.0 0.03 0.03 0.03 92 1007.6
20260506113028 55 0 0.0 1.7 0.03 0.03 0.03 92 1007.6
20260506112513 55 0 0.0 1.7 0.02 0.02 0.02 91 1007.6
20260506112012 55 13 0.9 1.7 0.02 0.02 0.02 90 1007.4
20260506111528 56 0 0.0 2.6 0.02 0.02 0.02 88 1007.5
20260506111011 56 0 0.0 2.6 0.01 0.01 0.01 87 1007.5
20260506110514 56 13 0.9 2.6 0.00 0.00 0.00 87 1007.6
20260506110030 56 0 0.0 1.7 0.00 0.00 0.00 87 1007.6
20260506105512 56 0 0.0 2.6 0.00 0.00 0.00 86 1007.7
20260506105012 56 13 0.9 2.6 0.00 0.00 0.00 85 1007.5
20260506104554 56 13 1.7 2.6 0.00 0.00 0.00 87 1007.4
20260506104011 55 17 0.9 3.5 0.00 0.00 0.00 88 1007.4
20260506103511 55 38 1.7 3.5 0.00 0.00 0.00 89 1007.1
20260506103029 55 59 1.7 2.6 0.00 0.00 0.00 89 1007.1
20260506102511 55 59 0.9 2.6 0.00 0.00 0.00 89 1007.0
20260506102009 55 59 0.9 2.6 0.00 0.00 0.00 88 1007.1
20260506101532 55 0 0.9 3.5 0.00 0.00 0.00 88 1007.1
20260506101013 55 59 1.7 3.5 0.00 0.00 0.00 88 1006.9
20260506100511 55 0 0.0 0.0 0.00 0.00 0.00 87 1007.0
20260506100039 56 0 0.0 0.0 0.00 0.00 0.00 86 1006.9
20260506095511 56 0 0.0 0.0 0.00 0.00 0.00 84 1007.0
20260506095010 56 0 0.0 0.0 0.00 0.00 0.00 82 1007.0
20260506094533 57 0 0.0 0.0 0.00 0.00 0.00 82 1007.1
20260506094016 57 0 0.0 0.0 0.00 0.00 0.00 81 1007.0
20260506093513 56 0 0.0 0.0 0.00 0.00 0.00 81 1006.9
20260506093028 56 0 0.0 1.7 0.00 0.00 0.00 82 1006.9
20260506092512 56 0 0.0 1.7 0.00 0.00 0.00 82 1006.9
20260506092013 56 0 0.0 1.7 0.00 0.00 0.00 83 1006.9
20260506091529 56 65 0.0 1.7 0.00 0.00 0.00 82 1006.9
20260506091011 56 0 0.0 0.0 0.00 0.00 0.00 82 1007.1
20260506090513 56 0 0.0 0.0 0.00 0.00 0.00 84 1007.0
20260506090040 57 0 0.0 0.0 0.00 0.00 0.00 83 1007.1
20260506085513 57 0 0.0 0.0 0.00 0.00 0.00 83 1007.0
20260506085012 57 0 0.0 0.0 0.00 0.00 0.00 84 1007.2
20260506084528 57 0 0.0 1.7 0.00 0.00 0.00 84 1007.3
20260506084017 56 0 0.0 1.7 0.00 0.00 0.00 89 1007.2
20260506083513 55 0 0.0 1.7 0.00 0.00 0.00 92 1007.4
20260506083037 55 0 0.0 0.0 0.00 0.00 0.00 94 1007.4
20260506082511 55 0 0.0 0.0 0.00 0.00 0.00 95 1007.2
20260506082013 54 0 0.0 0.0 0.00 0.00 0.00 95 1007.1
20260506081526 54 0 0.0 0.0 0.00 0.00 0.00 96 1007.2
20260506081010 54 0 0.0 0.0 0.00 0.00 0.00 96 1007.1
20260506080513 54 0 0.0 0.0 0.00 0.00 0.00 96 1007.1
20260506073517 55 42 0.0 0.9 0.00 0.00 0.00 96 1007.1
20260506073030 55 0 0.0 0.9 0.00 0.00 0.00 96 1007.3
20260506072517 55 0 0.0 0.0 0.00 0.00 0.00 96 1007.3
20260506072011 55 0 0.0 0.0 0.00 0.00 0.00 96 1007.4
20260506071529 55 0 0.0 0.0 0.00 0.00 0.00 96 1007.4
20260506071011 55 0 0.0 0.0 0.00 0.00 0.00 96 1007.5
20260506070512 55 0 0.0 0.0 0.00 0.00 0.00 96 1007.5
20260506062515 55 0 0.0 0.0 0.00 0.00 0.00 95 1007.8
20260506062011 54 0 0.0 0.0 0.00 0.00 0.00 95 1007.8
20260506061530 54 0 0.0 0.0 0.00 0.00 0.00 95 1007.9
20260506061016 54 0 0.0 0.0 0.00 0.00 0.00 94 1008.0
20260506060514 54 0 0.0 0.0 0.00 0.00 0.00 94 1008.1
20260506051012 55 0 0.0 3.5 0.00 0.00 0.00 90 1008.7
20260506050510 56 32 1.7 3.5 0.00 0.00 0.00 90 1008.5
20260506045012 58 55 1.7 3.5 0.00 0.00 0.00 89 1008.5
20260506044532 58 55 0.9 3.5 0.00 0.00 0.00 89 1008.6
20260506044008 58 57 1.7 4.3 0.00 0.00 0.00 88 1008.7
20260506043513 58 26 1.7 4.3 0.00 0.00 0.00 88 1008.6
20260506043028 58 34 2.6 5.2 0.00 0.00 0.00 88 1008.5
20260506042515 58 30 3.5 5.2 0.00 0.00 0.00 87 1008.6
20260506042011 58 38 2.6 6.1 0.00 0.00 0.00 87 1008.7
20260506041528 57 42 2.6 6.1 0.00 0.00 0.00 87 1008.8
20260506041011 57 327 0.9 3.5 0.00 0.00 0.00 88 1008.8
20260506040511 57 327 1.7 4.3 0.00 0.00 0.00 87 1008.8
20260506040042 56 0 0.9 4.3 0.00 0.00 0.00 87 1008.8
20260506035511 55 321 2.6 4.3 0.00 0.00 0.00 86 1008.8
20260506035012 55 321 2.6 4.3 0.00 0.00 0.00 85 1008.8
20260506034530 55 321 2.6 4.3 0.00 0.00 0.00 85 1008.7
20260506034013 55 321 0.0 3.5 0.00 0.00 0.00 85 1008.7
20260506033512 56 0 0.0 0.0 0.00 0.00 0.00 84 1008.6
20260506033029 56 0 0.0 0.0 0.00 0.00 0.00 85 1008.6
20260506032514 56 0 0.0 0.9 0.00 0.00 0.00 85 1008.6
20260506032011 56 0 0.0 1.7 0.00 0.00 0.00 86 1008.7
20260506031528 56 0 0.0 1.7 0.00 0.00 0.00 86 1008.6